GFSMA_prec_cthk_033.txt.gz
RH
52 50 48 49 48 45 47 46 38 34 34 33 34 34 33 30 27 25 25 24 25 24 26 29 31 32 31 28 29 32 30 29 31 33 31 28 26 25 26 26 26 26 26
54 48 47 47 46 43 44 38 36 34 34 34 35 33 31 29 28 26 26 25 24 24 27 30 34 35 33 34 35 34 35 33 34 33 32 31 33 30 26 22 22 23 23
52 46 45 46 44 41 40 37 34 35 36 36 33 29 27 25 25 25 26 27 28 29 29 31 34 37 40 40 39 37 39 39 37 34 34 35 33 34 34 33 29 25 22
48 45 47 46 42 39 36 33 38 39 38 38 33 27 25 26 27 28 31 32 31 32 34 35 37 39 40 42 40 39 38 38 35 37 37 40 36 35 36 35 31 27 25
47 46 45 42 39 35 34 38 41 43 42 39 33 29 33 35 35 36 37 36 35 37 40 42 43 43 44 42 39 36 38 40 43 41 40 41 44 44 39 37 36 38 36
46 45 45 42 37 35 37 42 45 46 43 39 39 39 41 37 39 40 41 42 42 40 40 40 40 41 41 39 38 37 40 40 42 42 41 40 42 45 43 39 38 39 36
52 48 45 41 39 40 42 46 48 46 49 51 52 52 51 44 44 45 48 47 47 46 47 46 47 47 46 44 43 40 41 41 42 42 45 45 44 45 44 45 46 45 44
54 52 46 42 44 45 48 54 56 60 66 69 67 56 52 50 51 49 51 50 49 51 51 49 51 50 49 49 48 46 46 43 41 43 43 48 49 49 49 48 50 51 48
60 56 50 46 50 54 54 58 70 79 84 80 74 64 57 54 50 55 52 51 53 53 49 48 47 46 44 42 35 35 38 41 43 45 48 49 54 54 53 53 52 51 50
74 66 65 54 55 60 61 69 76 74 83 82 65 58 54 53 58 58 57 55 49 45 42 39 35 34 34 34 35 38 42 47 53 56 55 56 53 55 52 53 54 51 45
76 73 70 60 64 71 76 78 89 75 83 78 66 54 55 58 58 55 50 47 39 36 38 41 39 43 44 46 48 50 51 54 54 52 50 44 45 46 48 46 47 44 44
73 74 73 71 78 81 82 79 73 79 62 62 56 59 61 60 51 45 42 43 46 46 43 42 41 43 43 46 48 53 54 52 51 44 32 26 26 28 27 26 33 32 32
83 80 78 82 84 82 77 74 72 66 65 59 63 63 58 50 50 50 50 50 44 40 37 37 36 38 38 40 41 40 38 32 25 21 21 20 19 20 26 25 29 34 34
82 79 82 89 83 78 80 75 80 66 64 67 67 61 54 51 56 56 48 42 38 37 36 36 30 26 29 30 28 24 21 19 20 19 19 19 19 21 28 28 28 32 36
80 86 87 82 81 76 75 81 65 70 76 70 59 58 59 60 56 45 37 34 35 31 32 38 35 34 31 29 26 24 23 23 23 22 22 23 24 26 31 31 33 39 39
82 77 76 79 79 71 70 69 73 82 77 67 65 64 62 57 50 37 32 28 29 33 32 37 41 39 33 31 28 28 27 25 24 24 24 25 25 26 31 34 34 35 35
84 74 73 77 74 79 77 74 81 88 78 75 72 69 64 63 47 34 26 28 30 33 37 37 41 37 33 31 33 31 28 27 26 25 26 28 28 30 35 32 34 36 38
68 73 77 77 76 71 76 81 84 89 80 77 77 73 70 62 42 30 30 31 33 38 39 41 45 39 37 34 33 31 30 28 26 26 28 30 32 34 38 42 42 41 42
72 77 78 73 74 82 84 85 91 89 83 82 76 72 65 46 38 31 32 35 40 42 41 45 43 40 37 38 36 35 32 28 28 28 29 32 38 42 45 46 45 43 41
78 84 81 74 86 83 83 91 97 89 86 79 67 61 53 40 35 35 35 39 44 46 48 51 42 39 38 39 38 34 30 31 31 33 36 40 43 45 48 52 50 46 41
82 82 83 81 85 88 93 97 97 92 88 83 63 52 41 34 36 39 40 43 45 50 54 48 44 41 40 41 38 33 32 32 32 36 40 50 52 53 57 56 53 49 42
88 86 85 89 89 94 97 98 98 94 83 62 46 36 32 33 39 43 46 47 50 57 53 49 46 42 42 41 37 35 35 38 38 39 40 51 57 57 60 58 55 50 45
91 80 87 94 96 97 97 97 98 86 64 41 33 29 30 34 43 48 52 54 59 60 54 51 48 45 44 41 37 37 42 43 41 38 39 49 60 61 61 59 58 52 47
90 90 95 95 96 95 93 91 75 52 33 28 26 28 32 37 46 55 61 65 66 63 59 54 48 46 42 40 37 40 40 43 42 41 45 46 63 66 64 61 62 59 52
96 98 96 92 87 87 76 53 37 29 26 24 26 30 36 43 55 65 69 72 71 68 66 61 52 48 44 42 38 42 46 46 42 42 44 48 65 66 65 65 69 64 57
90 89 83 81 64 50 38 31 29 28 26 26 28 35 44 52 63 72 74 77 74 75 72 67 62 56 48 46 41 44 45 47 46 47 45 46 67 71 68 68 69 69 62

GFSMA_prec_cthk_036.txt.gz
RH
50 48 49 50 52 50 47 46 39 35 33 33 34 31 28 24 22 24 25 22 22 25 31 38 37 35 35 32 32 30 30 29 28 28 27 28 26 25 24 22 22 21 22
51 55 55 51 47 47 44 42 37 34 36 36 34 30 26 22 21 23 28 32 26 26 28 36 41 40 40 34 35 36 38 36 36 35 34 30 32 30 27 27 26 24 20
64 53 47 48 46 42 40 38 34 34 37 36 34 29 28 27 31 29 33 34 39 32 31 32 36 38 40 39 37 40 40 41 39 39 36 38 38 33 30 30 30 29 29
65 48 46 44 45 41 38 36 34 36 38 38 37 36 34 36 36 36 38 38 38 44 45 38 38 40 42 42 44 44 43 43 42 39 41 42 41 41 39 35 33 35 35
56 51 44 43 42 40 37 32 34 38 42 43 43 44 47 48 46 44 41 41 41 44 50 46 45 45 45 45 45 44 43 42 42 45 47 47 47 46 45 44 39 35 36
49 45 44 43 43 39 33 34 38 44 46 51 55 58 59 56 53 50 44 42 45 44 44 43 43 43 40 37 34 34 35 37 37 39 38 37 38 41 44 43 41 42 40
52 49 46 43 41 37 37 40 44 48 56 61 66 62 61 59 58 56 46 45 48 44 42 42 44 44 40 36 33 33 30 30 30 28 29 30 31 38 43 46 48 51 51
60 59 54 46 45 42 46 50 53 55 60 67 70 68 63 58 59 54 50 50 49 46 46 43 39 37 36 36 33 26 22 22 23 25 30 31 32 33 42 44 53 58 58
76 74 71 68 58 55 52 56 59 67 71 72 72 71 59 59 59 55 54 55 51 46 45 43 42 37 31 30 29 30 29 28 30 31 33 37 43 43 46 47 51 60 63
88 82 74 72 66 62 61 63 68 77 79 77 70 63 56 56 54 57 57 53 53 52 50 49 38 34 33 32 32 32 33 31 30 33 38 39 43 46 47 51 53 58 62
85 82 79 79 78 78 71 73 79 84 81 72 62 61 57 55 61 62 56 55 53 53 50 40 37 33 33 32 30 31 25 25 27 28 28 26 28 33 33 35 46 51 54
79 87 88 87 82 78 78 80 84 85 72 70 67 61 58 63 60 55 54 56 56 56 49 40 35 31 28 28 28 23 23 25 25 24 20 16 15 16 21 26 31 41 43
79 90 87 84 85 84 79 87 85 77 73 69 67 63 67 64 59 62 62 59 57 56 54 43 36 36 36 36 31 29 25 22 19 18 17 18 18 18 18 24 25 34 35
85 86 86 86 81 77 86 80 73 72 71 60 67 74 69 68 67 66 65 61 58 55 45 42 46 40 39 39 35 29 27 25 23 19 20 20 20 20 21 23 28 30 35
89 90 89 88 89 86 74 77 76 74 72 72 78 80 78 74 74 71 65 62 53 42 31 38 39 45 43 42 42 37 29 28 24 21 21 21 21 22 22 27 30 31 35
89 89 93 93 85 84 77 81 78 84 79 84 89 86 82 79 74 72 66 59 49 38 35 38 41 42 44 41 41 35 32 28 25 25 24 21 22 22 22 26 31 33 33
91 93 95 93 83 75 82 78 88 80 83 93 94 88 86 79 77 73 66 55 42 38 36 35 36 39 44 42 43 42 38 29 28 27 25 22 22 22 23 26 29 31 37
88 89 90 87 78 81 80 83 80 87 96 97 95 91 84 84 81 75 65 52 42 42 40 38 40 42 47 49 46 43 38 33 31 30 25 22 23 23 27 31 34 36 38
79 81 80 73 77 84 89 81 84 95 96 97 94 93 92 88 86 73 58 46 45 46 46 43 44 48 53 51 50 44 38 34 32 29 29 28 30 30 32 35 38 42 45
79 78 73 80 80 86 87 85 91 96 98 96 95 94 93 84 70 55 47 47 49 47 47 47 50 54 57 56 53 47 40 33 32 32 34 38 36 38 42 44 44 49 48
71 71 75 80 81 88 94 94 95 95 97 96 96 94 81 62 45 41 41 47 53 52 51 54 59 64 61 59 57 50 38 35 36 37 36 47 44 46 53 57 60 61 56
68 66 79 76 92 97 92 92 97 96 95 94 88 77 54 43 34 33 36 40 47 55 58 64 69 68 63 63 61 47 41 40 38 42 38 40 47 47 56 63 63 55 55
67 68 78 86 89 92 94 97 97 96 86 79 64 49 42 41 38 36 38 44 51 58 61 69 73 70 69 64 56 46 44 44 44 44 42 44 48 46 59 67 65 59 57
72 78 83 89 92 95 96 95 87 73 58 47 40 36 34 33 40 44 45 53 54 62 62 65 68 69 68 65 57 50 47 48 48 48 51 51 49 47 57 68 65 65 62
77 81 83 84 85 82 75 62 48 41 37 34 34 31 31 34 40 44 50 57 64 68 71 68 68 67 66 63 58 51 50 54 51 48 51 57 50 47 54 67 73 72 65
71 72 72 67 60 48 43 36 35 34 34 33 32 33 34 35 40 47 55 62 65 70 79 71 66 69 69 69 67 62 57 60 54 50 52 57 53 48 45 71 76 71 68

GFSMA_prec_cthk_039.txt.gz
RH
71 67 62 59 57 56 53 45 43 33 32 34 34 32 28 25 24 26 29 27 23 27 29 33 40 41 39 36 33 32 32 34 35 37 34 32 31 30 26 23 22 21 19
68 64 60 57 55 50 47 44 37 35 36 36 36 29 27 29 32 30 33 35 32 25 28 38 45 45 43 38 37 38 40 40 41 41 40 41 40 40 36 35 30 25 23
60 64 63 58 51 49 46 41 39 34 36 36 35 35 36 37 40 39 38 40 39 38 32 34 40 43 42 41 40 40 40 41 40 40 41 40 41 41 41 42 40 37 33
67 69 55 47 46 46 43 39 38 35 36 37 37 40 43 44 46 45 47 46 46 44 45 39 35 37 39 43 43 42 41 39 38 37 35 35 37 39 42 44 43 43 41
78 72 51 49 44 46 42 40 35 35 38 40 42 44 48 49 50 48 49 48 48 45 48 44 40 41 41 40 39 37 36 35 33 33 33 32 32 32 33 33 37 40 42
72 59 52 48 50 48 43 39 35 37 41 44 45 47 50 53 50 48 46 44 44 47 48 49 45 40 35 33 32 31 26 24 25 25 24 23 23 23 24 24 25 31 33
61 57 57 52 52 47 45 41 43 45 48 51 55 59 54 49 49 48 47 46 46 49 47 45 42 39 36 35 34 30 23 20 19 21 25 27 28 28 28 30 36 37 41
63 66 68 67 61 58 55 53 51 51 53 59 65 66 64 59 52 50 50 48 50 51 49 44 41 41 42 39 35 33 30 23 20 19 20 21 24 26 28 29 33 33 33
75 78 78 76 72 71 68 63 56 56 59 65 70 69 66 61 57 54 51 54 55 54 51 48 46 46 45 44 39 36 29 24 23 20 19 21 22 26 27 28 30 32 31
85 89 86 86 86 80 75 71 68 63 70 74 73 70 68 65 67 62 59 58 55 54 57 55 53 51 48 43 37 33 28 25 22 19 20 19 19 20 22 22 21 22 30
77 79 82 87 87 86 80 77 75 73 77 78 73 69 68 68 68 66 64 69 63 60 58 58 59 55 47 40 40 34 28 26 21 19 18 17 15 14 18 21 22 23 31
80 72 72 79 89 89 85 82 75 76 80 80 72 68 70 70 68 70 69 69 70 69 67 67 60 52 49 42 39 38 28 25 23 20 17 17 16 16 17 22 24 24 27
73 70 73 83 88 89 88 85 84 77 85 83 79 69 73 77 75 74 74 72 73 75 72 67 62 53 45 43 40 36 29 25 25 21 22 21 19 17 16 17 24 27 35
67 67 75 91 91 90 88 87 85 83 81 79 77 75 88 84 79 78 80 78 75 74 71 66 64 58 54 49 38 34 33 29 30 28 27 24 20 18 17 19 22 27 30
69 76 90 91 91 90 94 93 86 86 82 85 78 86 83 87 88 87 86 83 79 74 72 68 57 52 48 46 46 40 37 34 33 34 30 26 22 19 17 18 19 23 28
80 85 89 91 91 94 91 88 84 84 78 82 89 89 88 89 90 90 86 82 81 83 70 59 50 47 44 42 45 39 36 37 43 40 33 26 22 19 20 19 19 23 30
60 69 81 82 85 84 88 87 82 75 85 93 93 93 96 95 94 92 90 87 84 73 61 49 50 46 48 47 48 47 47 49 48 41 36 29 22 22 22 22 21 23 27
60 63 68 82 86 85 81 79 72 80 89 96 92 95 95 97 93 92 90 84 70 64 56 47 45 49 50 52 51 49 54 54 49 43 37 29 26 27 27 29 29 29 32
72 73 76 80 81 77 77 72 75 79 90 96 97 95 96 96 94 93 83 68 63 60 54 52 49 53 54 57 58 58 60 58 53 46 37 31 29 32 34 33 36 38 37
71 73 74 73 76 82 77 77 94 92 98 92 94 95 95 95 94 84 70 61 56 54 53 57 56 56 58 61 64 62 63 64 57 44 40 36 36 39 41 40 40 45 49
72 66 70 76 75 74 73 87 94 87 85 89 94 93 92 85 72 64 56 50 51 55 56 71 65 61 62 67 69 67 65 63 52 47 43 41 41 40 47 46 46 52 57
57 65 71 74 76 80 77 81 92 86 87 90 91 85 73 62 57 50 46 44 41 41 43 53 67 69 68 71 69 69 67 65 51 52 49 41 42 43 50 49 47 52 58
57 61 63 67 71 77 82 86 85 82 82 78 71 60 53 48 47 46 46 45 40 39 45 49 58 63 75 73 75 71 71 67 55 51 48 44 48 48 52 50 47 52 57
57 61 65 70 75 80 77 77 75 71 65 57 47 44 43 43 43 43 42 41 48 48 44 50 59 62 75 73 76 76 74 68 61 58 56 53 53 49 51 50 42 49 57
60 65 68 69 69 69 66 61 56 48 43 40 39 40 42 41 38 38 40 41 42 45 62 70 59 61 64 70 74 80 74 74 67 67 64 60 57 52 52 47 42 56 63
57 58 57 57 53 46 49 47 43 43 39 40 39 38 37 39 39 40 42 43 42 40 52 73 80 75 70 73 73 79 79 81 81 75 74 67 61 54 48 49 47 51 59

GFSMA_prec_cthk_045.txt.gz
RH
72 73 72 70 73 72 65 60 51 44 32 30 29 28 26 27 29 32 34 35 35 32 30 33 35 37 36 34 33 31 29 29 29 29 29 28 25 26 24 24 24 25 28
78 75 72 75 68 66 60 54 47 36 30 31 30 30 32 34 35 35 37 36 37 35 30 31 38 39 40 36 35 32 32 30 30 30 30 29 27 24 20 20 20 20 20
76 77 77 67 68 58 55 49 42 35 31 30 32 33 35 40 43 40 38 38 38 37 34 28 36 40 41 38 35 31 33 33 32 30 29 28 27 24 22 21 22 24 23
81 74 72 65 62 52 50 45 44 41 37 32 32 37 44 47 50 47 41 41 39 37 34 34 39 37 38 39 36 35 37 37 35 34 33 30 26 23 23 24 24 25 25
62 64 66 77 60 51 48 47 46 42 37 34 37 45 47 49 52 49 47 42 37 36 34 38 37 37 38 39 40 41 42 38 37 36 34 30 26 26 26 25 25 24 24
62 67 73 78 52 48 48 46 47 44 42 39 43 49 53 53 55 55 50 47 43 40 38 39 40 41 40 38 39 42 42 40 39 35 32 29 27 25 22 23 25 24 30
68 70 70 69 55 51 55 54 55 55 51 49 50 55 60 62 62 58 54 49 50 49 46 44 41 42 42 43 45 46 44 44 40 37 34 31 26 25 28 26 32 32 26
78 79 72 64 66 68 67 66 65 64 65 64 60 63 63 64 66 64 58 58 55 56 58 54 49 48 48 48 50 50 50 49 46 44 40 36 32 27 27 25 24 23 22
72 75 72 63 70 82 80 82 86 87 83 74 70 70 71 71 69 67 62 61 60 60 59 54 56 58 57 56 55 54 53 52 53 50 47 38 30 26 21 19 23 22 22
68 72 80 79 78 84 87 78 78 80 92 84 80 83 79 80 76 70 68 69 66 66 66 60 62 62 65 63 62 61 59 59 60 51 39 31 25 21 18 17 21 22 22
74 80 80 85 82 80 83 80 81 77 90 83 83 84 80 81 77 76 74 75 70 71 65 65 67 66 66 67 65 63 64 63 54 42 36 31 26 23 20 19 23 23 22
82 84 90 88 86 86 88 85 81 77 88 91 86 84 85 81 76 77 76 77 76 75 72 73 73 73 71 69 68 68 65 56 47 43 39 33 29 27 24 22 22 22 25
89 90 91 89 87 88 88 81 81 90 92 94 89 92 88 83 80 77 72 74 71 77 79 80 80 77 78 78 71 64 57 51 48 46 40 36 32 29 26 23 23 24 31
73 76 79 81 83 89 87 84 82 84 88 84 84 85 89 87 84 71 70 75 77 78 81 85 89 90 87 81 69 59 52 50 49 45 40 37 35 32 29 29 29 30 33
57 65 77 78 81 75 64 64 65 72 73 76 80 80 75 92 79 70 75 80 88 85 82 85 86 89 82 71 60 54 52 51 47 43 40 39 39 35 33 34 36 33 33
53 60 76 80 77 72 65 67 73 71 73 75 78 84 75 84 85 79 83 95 93 92 83 84 80 75 70 64 58 56 52 46 42 41 41 42 41 39 39 40 37 34 31
57 65 78 79 80 69 64 63 69 70 74 75 85 96 77 98 90 84 91 88 90 90 85 74 68 63 58 54 53 46 44 45 48 51 49 48 47 47 45 44 43 38 34
64 75 73 72 68 68 66 65 68 72 68 81 75 75 91 89 81 89 87 86 89 87 80 65 59 54 54 54 52 54 53 49 50 52 56 56 55 52 52 49 51 42 36
73 73 69 64 65 65 67 68 69 70 65 85 70 90 82 84 86 84 87 86 80 76 71 63 53 53 52 57 58 58 56 57 60 58 60 60 58 57 55 55 50 42 39
71 68 63 65 67 68 64 66 62 73 66 78 74 78 85 90 86 82 78 72 64 60 55 56 56 53 55 51 60 61 63 72 70 70 65 64 60 62 61 59 53 49 44
69 63 65 65 64 59 56 62 64 67 70 79 75 84 86 85 78 69 59 53 51 50 52 50 49 52 49 47 49 52 57 68 76 79 75 76 75 74 70 65 57 54 48
62 61 66 56 49 55 59 60 68 69 74 76 81 77 79 69 54 47 43 44 48 49 48 47 46 47 43 49 47 47 58 76 87 86 87 81 89 81 74 65 58 55 55
61 51 47 48 53 55 60 65 69 70 72 75 72 65 54 48 47 42 39 38 38 40 43 45 45 42 44 41 48 50 59 75 88 86 95 96 95 83 77 64 60 66 59
42 43 48 51 53 58 61 65 70 71 67 59 47 47 48 45 43 40 37 35 34 33 34 36 38 37 37 37 36 45 49 62 77 87 98 96 88 79 76 64 72 74 63
41 44 47 49 53 57 63 64 63 56 49 47 49 48 45 42 39 34 31 29 27 25 21 17 14 11 8 9 22 37 46 61 68 91 99 97 85 83 76 71 76 74 65
42 45 48 51 54 58 59 55 50 48 49 50 50 43 38 34 31 31 31 30 26 22 20 17 15 15 18 14 9 9 29 57 71 83 91 98 98 97 83 74 76 75 66

GFSMA_prec_cthk_048.txt.gz
RH
70 66 64 65 68 69 70 68 63 51 43 36 32 27 27 29 32 32 34 33 32 32 34 37 36 36 35 33 30 29 26 25 24 25 26 25 27 25 22 23 23 22 21
67 68 68 67 74 72 72 65 57 48 38 33 32 30 30 32 36 36 38 36 36 36 34 30 36 41 41 37 34 31 25 27 29 28 28 26 26 25 23 20 20 23 23
69 70 69 73 75 69 65 55 49 43 31 31 32 32 33 38 41 43 43 40 40 37 34 30 35 40 41 39 35 31 29 32 32 33 32 31 31 29 25 22 20 21 25
74 73 71 76 68 65 54 50 45 40 36 32 30 33 36 44 47 45 46 47 43 37 37 35 35 42 42 39 36 35 35 37 37 37 36 35 34 31 27 25 24 26 27
78 73 72 70 64 55 50 48 45 44 40 36 34 35 39 46 51 52 51 52 49 42 42 41 40 43 42 39 39 40 41 43 41 38 36 34 33 30 28 24 23 26 27
75 74 65 62 70 55 51 46 45 45 46 44 42 41 46 50 57 58 58 57 53 50 49 44 44 44 43 40 40 42 44 45 44 44 42 39 37 34 29 24 20 26 28
66 63 58 72 71 54 50 54 54 53 53 54 55 54 56 59 62 63 62 59 56 54 51 50 49 48 48 45 45 47 49 49 51 50 48 44 41 39 36 31 27 26 24
66 65 66 65 60 60 60 62 61 62 66 71 71 70 65 62 64 66 68 68 63 57 56 53 54 53 51 51 52 53 54 55 56 54 53 49 49 43 37 29 26 27 25
65 68 72 65 63 67 70 80 81 81 79 78 76 77 80 71 72 73 71 69 61 57 56 58 59 60 58 56 58 60 62 63 63 62 59 59 51 42 32 27 24 22 25
69 74 74 70 64 77 85 85 82 80 81 79 81 77 80 75 75 73 72 72 66 59 61 65 59 56 59 59 60 61 63 66 68 67 62 56 46 38 33 29 26 24 26
64 64 67 74 82 87 88 84 86 87 88 84 81 81 82 82 84 77 76 71 68 67 64 60 61 63 64 63 64 63 62 64 64 59 56 50 44 42 37 32 28 24 23
70 71 75 83 89 89 88 89 90 92 85 84 85 87 88 86 86 81 79 77 76 75 67 68 69 71 70 68 67 66 64 64 61 58 53 49 46 45 41 38 34 30 28
83 87 87 93 94 89 90 91 92 93 84 78 78 76 74 74 76 75 74 74 76 75 69 70 74 73 69 69 71 72 69 64 61 56 52 50 49 46 44 41 37 32 30
64 77 85 86 90 85 87 88 87 75 74 69 65 77 76 68 77 71 69 80 78 75 77 80 79 75 74 73 76 73 64 60 57 52 51 53 53 53 50 46 39 34 32
62 66 62 70 77 78 78 77 77 72 68 71 72 70 71 69 79 87 82 86 81 81 84 82 81 80 75 72 67 60 56 54 53 55 55 55 54 52 52 50 44 39 35
62 60 58 61 71 79 81 85 77 67 68 66 69 70 65 71 82 89 84 83 92 85 75 75 74 75 75 70 62 56 54 55 54 54 53 49 51 55 57 58 59 50 47
75 75 69 63 71 74 79 77 67 65 63 65 66 67 70 79 73 74 83 93 87 81 76 71 72 72 64 59 55 53 54 53 52 51 51 52 53 54 56 62 71 64 58
80 82 77 71 72 72 69 64 66 66 65 64 70 60 72 69 79 71 81 79 77 78 75 68 66 58 54 52 52 54 55 56 57 58 60 56 63 60 64 68 75 73 60
79 82 77 75 72 68 61 64 67 66 64 69 69 63 73 71 73 75 74 75 77 76 70 62 52 47 45 47 50 53 55 61 61 61 65 74 74 78 76 74 77 80 68
68 82 77 74 76 65 61 65 68 67 65 65 64 63 72 74 80 80 76 79 78 67 56 49 46 45 48 44 47 48 47 48 47 51 53 55 69 81 88 84 85 86 79
73 74 77 77 70 61 63 65 64 62 55 61 62 70 71 76 79 76 73 72 57 47 45 45 44 42 41 42 43 42 44 41 36 36 45 52 69 81 84 95 90 95 88
72 75 72 68 60 61 62 58 53 55 61 61 69 74 77 74 77 75 61 50 48 46 44 44 44 46 45 48 45 43 44 42 39 25 42 45 63 68 98 93 88 94 80
74 73 69 64 62 55 47 50 57 60 63 69 74 75 77 76 65 52 52 51 46 46 46 46 46 46 39 34 31 27 25 26 30 41 40 39 45 58 79 95 99 87 81
74 70 64 53 46 47 53 58 60 62 66 73 78 77 62 52 52 53 50 47 45 40 39 38 35 31 27 24 24 24 22 15 9 10 37 50 45 55 82 99 99 90 81
63 54 51 47 48 53 56 57 61 65 70 72 65 58 58 57 54 51 47 43 41 41 39 37 34 31 29 28 30 30 25 31 26 21 20 36 64 60 96 98 97 94 89
49 46 44 45 49 53 55 59 62 63 61 59 61 60 59 56 50 46 42 41 40 39 38 37 34 29 26 22 19 26 35 40 38 31 27 37 67 84 89 95 98 96 88